Wind_Speed
29 31 33 35 36 36 35 33 32 32 31 30 29 30 30 30 30 31 31 31 32 32 31 31 32 32 31 30 29 27 27 25 24 22 21 21 21 20 19 19 19 19 20
16 18 20 22 23 24 25 25 25 24 24 24 24 24 25 25 26 26 27 28 28 27 27 28 28 29 29 28 26 25 25 23 22 21 20 20 21 21 19 19 19 20 21
1 3 5 7 9 11 12 12 14 14 15 16 16 16 16 17 17 17 18 19 21 21 22 23 24 24 24 24 24 24 23 22 21 20 19 20 21 21 20 19 19 20 21
12 10 9 7 5 4 3 3 4 6 7 8 9 10 11 13 13 14 14 15 15 16 17 18 19 20 20 21 22 21 21 20 20 20 20 20 21 21 21 20 20 20 21
15 14 13 11 10 8 7 6 6 6 7 8 9 10 11 13 14 15 15 16 16 17 17 18 18 19 19 20 20 20 20 20 20 20 20 20 21 21 21 21 20 20 20
15 14 14 13 13 12 10 10 9 9 9 10 11 12 13 15 16 17 18 19 19 20 20 20 19 19 20 20 20 20 20 20 21 20 20 20 20 21 21 21 20 19 19
17 16 16 15 14 13 12 12 12 12 12 13 14 15 16 17 18 19 20 20 20 20 21 21 21 20 20 20 20 19 19 20 20 20 21 21 21 21 21 21 20 18 17
18 18 17 17 16 15 15 14 14 14 15 15 16 17 18 20 20 21 21 21 21 21 21 21 21 21 21 20 20 19 18 18 18 19 19 20 20 20 20 21 20 19 17
19 19 19 19 19 18 17 17 16 16 16 16 17 17 18 19 20 20 20 20 20 20 20 20 21 21 20 20 19 18 17 16 16 16 17 18 19 19 19 20 20 19 18
20 20 20 20 20 19 19 18 18 17 16 16 16 15 15 16 15 16 16 16 17 17 18 19 19 20 20 20 19 17 16 15 14 14 14 14 15 16 17 18 19 18 18
20 20 21 21 21 20 20 20 20 20 19 17 16 15 14 13 12 12 12 13 14 15 16 17 18 18 18 18 18 17 16 15 14 13 12 11 12 12 13 14 15 15 16
20 21 21 22 22 21 21 22 22 22 21 19 17 16 15 14 13 11 10 10 10 11 13 14 16 17 17 17 17 16 16 15 14 12 10 10 9 9 9 9 10 11 11
21 21 21 22 22 22 22 23 23 24 23 22 20 18 17 15 14 12 10 8 7 7 8 10 12 14 15 15 15 15 14 13 12 11 9 8 7 6 6 6 6 6 7
20 21 21 22 22 23 23 24 24 24 25 25 23 22 21 20 18 16 13 10 7 4 3 4 6 9 12 13 14 13 13 12 11 10 8 7 6 5 4 3 3 4 5
20 19 20 21 21 23 23 24 24 25 25 25 26 26 26 25 24 22 19 16 12 9 5 2 3 5 8 10 11 11 11 10 10 9 8 7 6 4 3 1 1 2 3
19 19 19 20 20 21 22 23 24 25 25 26 26 27 27 28 27 27 25 22 20 17 14 11 9 8 9 10 10 10 11 11 10 9 8 8 6 4 3 2 2 3 4
19 19 19 19 19 20 21 22 23 24 24 25 26 27 28 28 29 29 28 27 25 23 21 19 17 15 14 14 13 13 13 12 11 11 9 8 7 6 6 5 5 6 6
17 18 18 18 18 19 19 20 21 22 23 24 25 26 26 27 27 28 29 28 28 27 26 24 23 21 20 18 17 16 15 14 13 12 11 10 9 9 8 7 7 8 9
16 17 17 17 18 18 18 19 20 21 21 22 23 24 24 25 25 25 26 27 27 27 26 26 25 24 22 21 20 19 17 16 15 14 13 12 11 10 10 9 9 9 10
13 15 16 17 17 17 17 17 18 19 20 20 21 22 22 23 23 23 23 23 24 24 24 23 23 22 22 21 20 19 18 17 16 15 14 13 12 10 10 9 9 10 11
11 13 15 16 16 16 16 16 17 17 18 19 19 20 20 20 21 21 21 21 21 20 20 20 20 20 19 19 18 17 16 16 15 13 12 11 10 9 9 9 9 10 11
9 10 12 14 15 15 15 15 16 16 17 17 17 18 18 18 19 19 19 19 19 19 19 18 18 18 17 16 15 14 14 13 12 11 10 9 9 8 8 9 9 9 11
8 8 9 11 13 13 14 15 15 15 15 15 16 16 16 16 16 17 17 17 17 17 17 17 17 17 16 16 15 14 13 12 11 10 10 9 9 9 9 9 9 9 10
7 7 8 9 10 11 12 13 14 14 14 14 14 14 14 14 14 14 15 15 16 16 17 17 17 17 17 17 16 15 15 14 13 12 11 10 9 9 9 9 9 10 10
8 8 8 8 9 9 10 11 12 12 12 12 12 12 12 12 11 11 12 12 13 13 14 15 16 16 16 16 16 15 15 14 13 12 11 11 10 9 9 9 9 9 10
10 9 9 9 9 9 9 10 10 10 11 11 10 10 10 10 9 9 9 9 9 10 11 11 12 13 13 13 13 13 12 12 11 11 10 9 9 8 8 9 9 10 11
Wind_Direction
257 257 259 260 262 264 266 269 270 270 269 266 264 264 262 262 261 260 260 259 258 256 253 249 246 244 243 242 244 248 251 254 255 255 253 254 256 259 261 263 265 265 265
256 257 259 261 262 264 266 268 268 268 267 264 263 261 259 257 256 256 256 253 251 249 248 247 244 243 242 241 243 247 250 251 253 253 250 249 251 255 259 261 264 264 264
220 247 254 262 265 267 270 270 270 269 269 266 262 258 255 251 249 248 247 246 243 244 244 243 242 242 242 244 247 249 250 252 252 252 251 248 248 251 255 257 263 263 262
75 72 68 62 54 43 11 328 308 286 277 272 267 263 258 252 251 251 248 245 244 243 244 247 247 247 248 249 250 251 253 255 254 253 252 249 247 248 251 254 260 264 264
64 63 60 55 48 39 27 11 351 324 308 298 289 280 275 271 266 264 262 261 261 261 261 260 258 254 254 254 254 255 257 257 256 254 253 250 248 247 249 253 260 264 265
55 51 49 45 40 32 22 10 356 341 326 315 306 299 293 287 282 277 274 271 268 266 264 263 261 259 259 258 258 258 258 258 257 256 254 251 248 247 248 252 257 262 263
57 52 47 40 32 21 10 357 345 333 323 315 308 301 294 288 283 279 275 271 268 265 262 259 257 256 256 257 258 258 259 260 258 256 254 252 250 248 248 250 254 258 263
52 47 41 34 26 17 7 358 346 333 322 314 307 301 295 289 283 277 273 269 266 263 260 256 254 252 251 252 253 254 256 256 256 255 253 251 250 249 249 251 251 254 258
44 38 32 25 20 15 9 4 356 346 334 323 314 306 302 295 285 278 273 269 266 262 258 254 251 250 249 248 249 249 251 252 254 254 253 251 250 249 248 249 250 252 254
37 32 27 22 18 16 13 10 6 360 351 343 336 327 318 311 299 288 279 272 267 263 257 252 249 246 247 246 247 247 246 247 248 249 248 248 247 247 247 248 249 252 255
33 30 27 24 22 21 21 20 18 14 8 3 359 353 345 337 324 308 293 281 271 263 257 252 247 243 243 243 242 242 241 241 240 241 243 243 241 243 242 245 247 251 257
33 31 29 26 26 26 26 25 23 21 18 16 14 11 6 0 352 339 322 304 287 270 259 252 246 242 239 240 237 237 235 235 234 233 232 234 234 236 238 239 245 252 260
34 32 29 28 27 26 27 27 26 26 26 25 24 21 18 13 6 358 348 335 314 289 267 252 244 238 232 229 229 229 229 228 228 228 223 220 220 221 221 227 240 256 268
34 33 31 30 30 31 30 30 31 32 32 32 32 32 29 27 23 19 17 15 9 350 294 246 234 227 218 214 215 216 217 218 217 212 209 206 199 197 203 218 242 267 284
34 34 32 32 33 32 31 32 33 33 34 34 35 35 34 34 34 35 36 38 40 42 48 96 162 178 186 192 196 198 198 196 192 188 185 179 176 172 175 197 264 308 323
34 33 32 31 31 31 30 31 32 33 34 35 35 36 36 37 39 41 45 48 52 58 66 79 99 119 134 148 156 161 165 165 162 161 159 157 155 150 139 122 82 52 36
34 33 32 31 30 30 30 31 32 33 34 34 35 37 38 39 42 46 50 53 57 62 69 76 84 96 107 118 126 133 139 140 142 144 143 139 132 123 113 100 82 64 49
33 32 31 29 28 28 29 29 31 32 34 35 36 37 39 41 44 48 52 56 59 63 69 74 81 88 95 103 110 116 120 122 124 125 123 119 113 107 99 87 75 65 53
30 30 30 28 28 27 26 26 28 30 32 34 35 37 39 41 44 48 52 56 60 64 68 72 77 81 87 93 98 102 105 107 109 108 107 105 101 97 90 80 70 61 50
26 26 27 26 26 26 25 24 25 28 30 32 35 37 39 41 44 47 52 56 60 63 67 70 74 78 82 86 89 92 95 97 98 99 98 97 93 87 80 71 63 55 46
19 21 22 23 23 23 23 24 25 26 28 31 34 36 39 41 44 47 51 55 59 62 65 68 72 75 78 81 84 87 90 91 92 93 92 89 83 76 68 60 53 46 38
5 11 16 19 20 21 21 22 23 25 26 29 32 35 38 41 44 47 50 54 58 60 63 66 69 71 73 76 79 82 85 86 87 86 83 79 72 66 57 50 44 37 31
345 354 3 10 15 18 19 20 21 22 23 26 30 34 37 41 45 48 51 55 57 60 62 65 66 68 70 71 73 75 76 76 76 74 71 67 62 56 51 46 40 34 27
323 329 339 350 0 8 14 17 18 17 18 21 25 31 35 39 44 48 52 55 58 60 63 64 65 66 67 68 69 70 70 69 68 65 62 59 55 50 46 41 36 30 24
305 310 313 322 335 347 358 6 11 13 14 16 20 26 31 36 41 47 51 54 58 61 64 65 66 66 66 66 67 67 66 65 64 61 58 53 49 45 40 34 27 20 13
289 295 298 301 309 321 332 343 353 360 5 9 13 17 22 29 36 42 47 53 58 60 61 62 64 63 63 62 61 60 59 57 54 51 47 41 35 28 21 14 7 1 356
Height
5783 5785 5787 5789 5790 5791 5792 5792 5793 5792 5793 5793 5793 5793 5793 5794 5794 5795 5796 5796 5797 5797 5798 5799 5801 5802 5804 5807 5809 5811 5813 5814 5815 5815 5817 5817 5817 5817 5817 5817 5817 5817 5818
5779 5780 5782 5783 5784 5785 5785 5785 5785 5785 5785 5785 5786 5786 5786 5786 5787 5787 5788 5788 5789 5790 5791 5792 5793 5795 5797 5799 5801 5803 5805 5806 5807 5808 5810 5811 5811 5811 5812 5812 5811 5812 5812
5777 5778 5779 5780 5781 5781 5781 5781 5781 5781 5781 5781 5780 5780 5780 5781 5781 5781 5781 5781 5782 5783 5784 5785 5787 5788 5790 5792 5794 5796 5797 5799 5800 5801 5803 5804 5805 5806 5806 5806 5806 5806 5807
5780 5780 5780 5780 5780 5780 5780 5780 5779 5779 5778 5778 5777 5777 5776 5776 5776 5776 5776 5776 5777 5778 5779 5780 5781 5783 5784 5786 5787 5789 5790 5792 5793 5794 5796 5798 5799 5800 5801 5801 5801 5801 5801
5784 5783 5783 5782 5782 5781 5780 5780 5779 5778 5777 5776 5775 5774 5773 5772 5772 5772 5772 5772 5772 5773 5773 5775 5776 5777 5779 5780 5781 5783 5784 5785 5786 5788 5789 5791 5792 5794 5795 5795 5796 5796 5796
5788 5787 5786 5784 5783 5782 5781 5779 5778 5776 5775 5773 5772 5771 5769 5768 5767 5767 5767 5767 5767 5768 5768 5769 5770 5772 5773 5774 5775 5776 5778 5779 5780 5782 5783 5785 5786 5787 5789 5790 5791 5791 5791
5791 5790 5788 5787 5785 5783 5781 5779 5777 5775 5773 5771 5769 5767 5765 5764 5762 5761 5761 5761 5762 5762 5763 5763 5764 5765 5767 5768 5769 5770 5772 5773 5775 5776 5777 5778 5780 5781 5783 5784 5785 5786 5786
5795 5793 5791 5789 5786 5784 5781 5778 5775 5773 5770 5767 5765 5762 5760 5758 5756 5755 5755 5755 5755 5755 5756 5757 5758 5759 5760 5762 5763 5765 5766 5768 5769 5770 5772 5773 5774 5776 5777 5779 5780 5781 5782
5798 5796 5793 5790 5787 5784 5780 5777 5774 5770 5766 5763 5760 5757 5754 5751 5749 5748 5748 5748 5748 5749 5749 5750 5752 5753 5755 5756 5758 5760 5761 5763 5764 5766 5767 5768 5769 5770 5772 5774 5775 5776 5777
5801 5798 5795 5792 5788 5784 5781 5777 5773 5768 5764 5760 5756 5752 5749 5746 5743 5742 5741 5742 5742 5742 5743 5744 5745 5747 5749 5751 5753 5755 5757 5759 5760 5762 5763 5763 5765 5766 5767 5769 5770 5772 5772
5804 5801 5797 5793 5790 5785 5781 5777 5773 5768 5763 5759 5754 5750 5747 5743 5740 5738 5736 5736 5736 5736 5737 5738 5739 5741 5743 5746 5748 5751 5753 5755 5757 5758 5759 5761 5762 5763 5764 5765 5766 5768 5769
5806 5803 5799 5796 5792 5787 5783 5779 5774 5769 5764 5759 5755 5751 5747 5743 5739 5736 5733 5732 5731 5731 5731 5732 5734 5736 5738 5741 5743 5746 5749 5751 5753 5755 5757 5758 5759 5760 5761 5762 5764 5764 5765
5809 5805 5802 5798 5794 5790 5785 5781 5776 5771 5766 5761 5756 5752 5748 5743 5739 5735 5732 5729 5728 5727 5727 5727 5729 5731 5733 5736 5739 5742 5745 5748 5750 5753 5755 5756 5758 5759 5760 5761 5762 5763 5763
5812 5808 5805 5801 5797 5793 5788 5784 5780 5775 5770 5764 5759 5755 5750 5745 5740 5735 5731 5728 5726 5724 5724 5724 5724 5726 5729 5732 5735 5739 5742 5746 5748 5751 5753 5755 5757 5758 5760 5761 5761 5762 5762
5814 5811 5808 5804 5800 5796 5792 5788 5783 5779 5774 5769 5764 5759 5753 5748 5743 5737 5732 5729 5726 5724 5723 5723 5723 5725 5727 5730 5734 5737 5741 5744 5747 5750 5753 5755 5757 5758 5759 5760 5761 5761 5761
5817 5814 5811 5807 5804 5800 5796 5792 5787 5783 5778 5773 5769 5763 5758 5753 5747 5742 5737 5733 5730 5727 5726 5725 5725 5727 5729 5732 5735 5738 5741 5745 5748 5750 5753 5755 5757 5758 5759 5760 5760 5760 5760
5820 5817 5814 5810 5807 5803 5800 5796 5792 5788 5783 5778 5774 5769 5764 5759 5754 5749 5744 5741 5737 5735 5732 5731 5731 5732 5733 5736 5738 5741 5744 5747 5749 5752 5754 5756 5758 5759 5760 5760 5760 5760 5759
5823 5820 5817 5813 5810 5807 5803 5800 5796 5792 5788 5783 5779 5775 5770 5766 5761 5757 5753 5750 5747 5744 5742 5740 5739 5739 5740 5742 5743 5746 5748 5750 5752 5754 5756 5758 5759 5760 5761 5761 5761 5761 5760
5826 5823 5820 5816 5813 5810 5806 5803 5799 5796 5792 5788 5784 5780 5776 5772 5768 5765 5761 5758 5756 5753 5751 5750 5749 5748 5749 5749 5750 5752 5753 5755 5756 5758 5759 5760 5761 5762 5762 5762 5762 5761 5760
5828 5825 5822 5819 5816 5813 5809 5806 5803 5799 5796 5792 5788 5785 5781 5778 5774 5771 5768 5766 5764 5762 5760 5759 5758 5757 5757 5757 5758 5758 5759 5760 5761 5762 5763 5763 5764 5764 5764 5764 5763 5762 5761
5829 5827 5824 5821 5818 5815 5812 5809 5806 5803 5799 5796 5793 5789 5786 5783 5780 5777 5774 5772 5770 5769 5767 5766 5765 5764 5764 5764 5764 5764 5764 5765 5765 5765 5766 5766 5766 5766 5766 5765 5764 5762 5761
5830 5828 5825 5823 5820 5817 5814 5812 5809 5806 5803 5799 5796 5793 5790 5788 5785 5782 5780 5778 5776 5774 5773 5772 5771 5770 5769 5769 5769 5769 5768 5768 5768 5768 5768 5768 5768 5767 5766 5765 5764 5763 5761
5830 5828 5826 5824 5822 5819 5816 5814 5811 5808 5805 5803 5800 5797 5794 5792 5789 5787 5785 5783 5781 5779 5778 5777 5775 5774 5774 5773 5773 5772 5772 5771 5771 5771 5771 5770 5769 5769 5768 5766 5765 5764 5762
5830 5828 5826 5825 5823 5820 5818 5815 5813 5810 5808 5805 5803 5800 5798 5796 5793 5791 5789 5787 5786 5784 5783 5781 5780 5779 5778 5777 5776 5775 5775 5774 5774 5773 5773 5772 5771 5770 5769 5768 5766 5765 5763
5828 5827 5826 5824 5823 5821 5819 5817 5814 5812 5810 5808 5805 5803 5801 5799 5797 5795 5793 5792 5790 5789 5787 5786 5785 5783 5782 5781 5780 5779 5778 5778 5777 5776 5775 5774 5773 5772 5771 5769 5767 5765 5763
5826 5825 5824 5822 5821 5820 5818 5817 5815 5813 5811 5809 5807 5805 5803 5801 5799 5798 5796 5795 5794 5793 5791 5790 5789 5788 5787 5785 5784 5783 5782 5781 5780 5778 5777 5776 5775 5773 5772 5770 5768 5765 5763